Regional Weather Roundup
Issued by NWS Kansas City/Pleasant Hill, MO

Home | Current Version | Previous Version | Graphics & Text | Print | Product List | Glossary Off
Versions: 1 2 3 4 5 6 7 8 9 10 11 12 13 14 15 16 17 18 19 20 21 22 23 24 25 26 27 28 29 30 31 32 33 34 35 36 37 38 39 40 41 42 43 44 45 46 47 48 49 50

000
ASUS43 KEAX 061111
RWREAX

WEATHER ROUNDUP FOR EASTERN KANSAS AND NORTHWEST MISSOURI
NATIONAL WEATHER SERVICE KANSAS CITY/PLEASANT HILL MO
600 AM CDT MON JUL 06 2015

KSZ040-057-103>105-MOZ028-029-037-043-061200-
...KANSAS CITY METROPOLITAN AREA...

CITY           SKY/WX    TMP DP  RH WIND       PRES   REMARKS
K.C. INTL      CLOUDY    74  70  87 S12       29.89R
K.C. DOWNTOWN  CLOUDY    76  70  82 S10       29.89R
LEES SUMMIT    CLOUDY    74  68  81 S12       29.92R
OLATHE - IXD   CLOUDY    73  69  87 S10       29.91S
OLATHE - OJC   CLOUDY    72  69  90 S10       29.90S
LAWRENCE       CLOUDY    74  71  91 S9        29.89R

$$

MOZ001>008-011>017-020>025-030>033-038>040-044>046-053-054-061200-
...NORTHERN AND CENTRAL MISSOURI...

CITY           SKY/WX    TMP DP  RH WIND       PRES   REMARKS
ST. JOSEPH     CLOUDY    77  71  82 S9        29.88R
MOSBY            N/A     73  68  83 SE3       29.90R
WARRENSBURG    MOCLDY    72  68  88 S8        29.93R
WHITEMAN AFB   MOCLDY    72  69  90 S10       29.92S
CLINTON        MOCLDY    73  72  94 S7        29.94R
SEDALIA        MOCLDY    74  68  81 S10       29.96R
WARSAW         NOT AVBL
CHILLICOTHE      N/A     75  69  81 S8        29.91R
KIRKSVILLE     CLOUDY    72  67  84 S9        29.93R

$$

MOZ041-047>049-056>058-063>065-088>090-097-061200-
...EASTERN AND SOUTHERN MISSOURI...

CITY           SKY/WX    TMP DP  RH WIND       PRES   REMARKS
ST. LOUIS INTL MOCLDY    74  69  85 SE8       30.00S HAZE
SPIRIT OF STL  CLEAR     72  70  93 CALM      29.98S FOG
COLUMBIA       MOCLDY    72  71  97 S7        29.97R
JEFFERSON CITY MOCLDY    73  71  93 SE5       29.96S
MEXICO         MOCLDY   N/A N/A N/A S6        29.95F
ROLLA          MOCLDY    72  71  97 S12       29.99S
LEBANON        MOCLDY    72  70  94 MISG      30.01S
OSAGE BEACH    MOCLDY    72  70  94 S5        29.97S
SPRINGFIELD    PTCLDY    72  69  90 S10       29.99S
BRANSON          N/A     72  70  94 CALM      30.03S
JOPLIN         MOCLDY    75  71  87 S12       29.96S
WEST PLAINS    FOG       70  68  93 SE3       30.06R VSB 1/2
MALDEN         MOCLDY    73  72  94 S8        30.08R

$$

IAZ060-094-KSZ022-034>040-054-083-096-NEZ052-066-093-061200-
...KANSAS...SOUTHEAST NEBRASKA AND IOWA...

CITY           SKY/WX    TMP DP  RH WIND       PRES   REMARKS
TOPEKA         CLOUDY    77  72  84 S10       29.87R
MANHATTAN      CLOUDY    78  70  76 SW7       29.85R
EMPORIA        CLOUDY    74  70  87 S15       29.88S
CHANUTE        CLOUDY    74  71  91 S9        29.92S
WICHITA        CLOUDY    77  69  76 S12       29.87R
OMAHA          CLOUDY    76  71  85 NW10      29.86R
LINCOLN        LGT RAIN  74  68  81 N12       29.86S
FALLS CITY     CLOUDY    78  72  81 SW8       29.86R
LAMONI         CLOUDY    74  69  85 S9        29.88R
DES MOINES     CLOUDY    78  71  79 SE6       29.83R THUNDER

$$




USA.gov is the U.S. government's official web portal to all federal, state and local government web resources and services.